RH
42 43 43 43 43 42 41 40 39 36 34 33 30 27 23 18 12 11 10 10 9 9 9 9 10 10 10 11 11 12 12 13 14 15 14 14 13 12 11 10 9 8 8 7 7 9 10 12 12 9 8 9 9 11 14 14 13 13 12 12 11 9 10 13 15 13 13 13 12 14 14 15 22 27 29 28 28 30 30 34 35 32 32 32 32 33 33 35
41 42 43 44 44 44 43 42 41 39 37 35 33 29 26 20 14 13 12 11 10 9 9 8 9 9 9 10 10 11 11 11 13 14 15 14 14 13 12 10 8 8 8 8 7 8 10 11 12 10 9 11 11 12 14 14 14 13 13 12 10 10 13 16 16 14 14 14 14 14 14 14 21 27 26 26 28 28 29 34 36 34 36 36 34 34 33 34
39 41 43 44 45 45 45 44 43 41 40 37 35 32 27 21 16 14 13 12 11 10 9 8 8 8 8 9 9 9 10 10 12 14 14 13 14 13 12 11 9 8 8 8 8 9 11 11 11 10 10 13 13 13 14 14 14 13 12 12 10 12 16 18 17 16 16 15 14 15 14 13 18 23 23 24 27 26 26 32 35 36 38 37 36 34 33 34
36 38 41 42 43 45 46 46 45 44 43 39 38 34 28 22 17 15 14 13 12 11 10 9 8 8 8 8 8 8 9 9 10 13 13 12 14 14 13 12 11 9 8 9 10 11 12 10 11 11 11 14 14 14 14 14 14 14 12 11 10 14 19 19 18 17 16 16 15 14 14 13 15 17 21 24 22 20 23 27 30 32 35 36 36 34 33 33
35 36 38 39 41 44 46 46 46 45 44 42 40 36 30 23 18 16 15 14 13 12 11 10 9 8 8 8 8 8 9 8 9 11 13 14 15 15 14 13 12 11 9 10 11 13 12 9 11 11 12 15 15 14 14 14 13 13 12 12 11 16 21 20 18 18 16 16 15 15 14 13 14 15 22 22 15 16 19 22 25 25 28 29 31 32 33 34
34 35 36 38 40 43 45 46 46 45 45 44 42 39 33 24 18 17 16 15 15 13 12 11 9 9 8 8 8 8 8 8 10 13 15 15 16 16 16 14 12 12 11 10 12 13 12 10 11 12 13 15 15 13 13 14 13 12 12 12 12 17 21 20 19 18 16 16 15 15 15 14 14 15 22 22 15 16 16 19 24 24 25 25 27 30 32 33
34 35 36 38 40 42 46 46 46 46 45 44 43 41 36 26 19 18 17 16 16 15 14 12 11 10 8 8 8 8 8 7 10 14 15 15 15 15 16 16 13 12 12 12 13 13 12 10 12 13 13 14 14 14 13 14 12 12 12 12 13 18 21 20 19 17 16 17 15 15 15 15 14 13 20 21 16 17 16 20 24 24 26 27 28 29 29 30
34 34 35 37 40 43 45 46 47 47 45 44 43 41 37 28 21 19 18 16 16 16 15 13 12 11 10 9 9 9 9 8 8 10 11 12 14 14 16 16 14 12 13 13 13 13 11 11 12 13 13 13 14 14 14 13 12 12 12 12 15 18 20 20 19 17 16 16 15 16 15 15 14 13 16 16 16 20 20 23 26 26 29 30 28 28 28 30
33 33 34 36 39 42 43 45 46 46 45 44 42 41 38 32 23 20 19 18 17 16 15 14 13 12 11 10 10 10 9 8 7 7 7 8 11 14 16 17 15 12 14 16 16 13 11 11 12 13 13 13 14 14 14 13 12 11 12 12 16 18 19 19 18 17 16 16 15 16 15 15 14 13 14 14 19 26 26 26 27 28 32 32 29 29 28 30
32 33 34 35 38 41 42 44 45 45 44 43 42 40 37 30 23 20 20 19 18 17 16 15 14 14 13 12 12 11 9 9 9 9 9 7 7 11 16 17 15 13 15 18 17 14 12 11 12 13 14 14 15 15 14 13 12 12 12 13 16 19 19 19 18 17 16 16 15 15 15 15 15 13 14 22 29 31 30 32 33 32 34 32 30 30 29 31
33 32 33 35 38 39 42 43 44 43 42 41 40 39 36 27 23 22 21 21 20 18 17 16 15 15 15 15 14 12 10 10 10 10 10 9 7 10 14 15 15 14 15 17 17 16 13 11 13 15 15 15 15 15 14 13 12 12 13 12 13 17 19 19 18 17 16 16 15 15 15 14 14 12 13 26 35 33 32 35 36 36 34 31 32 33 33 34
33 34 34 36 38 39 41 43 43 42 41 39 36 34 30 25 24 24 23 22 21 20 18 16 16 15 16 17 14 12 11 11 11 11 13 11 9 10 12 14 15 14 15 16 17 17 15 13 14 16 16 16 15 15 14 13 12 11 13 13 13 15 18 18 17 17 16 15 15 15 15 13 13 12 12 26 35 32 33 35 35 36 33 32 34 35 34 35
34 36 37 37 39 40 42 43 43 42 40 38 33 26 22 22 24 25 25 24 22 21 20 18 17 17 19 19 15 12 12 12 11 12 15 13 12 11 11 13 16 16 16 16 17 19 17 14 16 17 17 18 16 15 15 13 11 12 13 14 15 16 17 18 17 17 15 15 16 14 14 13 12 12 12 23 34 32 33 33 32 34 33 34 37 37 35 33
35 37 38 38 40 41 42 41 41 42 39 34 28 22 19 20 22 23 25 25 24 23 21 21 22 21 23 20 15 14 12 10 10 11 14 13 13 13 12 13 17 18 18 19 20 19 17 17 20 19 18 19 18 17 15 14 13 13 14 15 18 19 17 17 17 17 15 15 16 14 14 13 12 13 11 17 30 33 32 32 32 34 34 34 36 38 36 32
37 38 39 40 41 41 40 40 40 41 38 33 25 20 21 21 21 21 22 24 24 24 23 25 27 27 26 21 15 16 13 11 10 9 11 12 12 14 15 17 19 20 20 21 21 19 19 21 21 21 19 19 20 19 17 16 16 15 15 17 19 19 18 17 17 17 15 15 15 13 13 12 11 16 16 16 29 34 30 31 33 34 35 35 36 38 38 34
38 39 41 42 41 41 40 39 40 39 36 32 24 20 21 21 21 20 20 21 23 25 27 30 31 30 28 22 17 17 14 12 10 9 9 10 12 15 19 21 20 20 20 20 20 19 20 21 22 22 20 19 21 20 19 18 18 17 16 17 18 19 18 17 17 17 16 15 14 13 13 13 14 19 22 21 28 33 30 31 33 34 36 36 37 39 40 40
38 40 43 44 42 41 40 39 39 38 36 30 22 21 22 21 20 20 20 19 21 27 32 34 34 32 26 21 19 18 15 13 11 10 9 10 12 15 19 21 20 20 20 20 21 20 19 20 22 23 21 21 22 20 21 22 20 18 17 17 17 18 18 18 17 17 16 15 14 14 14 17 20 24 26 26 27 28 28 29 32 35 36 36 37 38 40 43
40 43 45 45 44 41 38 38 38 37 36 28 21 22 21 21 20 20 20 20 26 32 33 36 36 31 25 21 20 19 16 15 13 11 10 11 12 14 19 20 18 19 21 21 21 21 21 22 24 25 24 23 23 22 22 23 20 18 18 17 17 17 18 18 17 17 16 15 14 15 18 24 26 26 29 31 29 28 28 28 30 33 36 37 38 38 40 44
43 45 47 45 44 43 40 40 37 34 35 28 24 29 28 27 25 22 24 26 30 29 26 30 30 25 24 23 21 19 17 16 15 12 11 12 13 15 18 19 18 18 20 21 20 20 22 26 28 29 28 25 25 23 21 21 19 16 17 16 15 16 16 17 17 17 17 17 19 20 24 28 30 29 29 31 32 31 31 31 31 32 34 37 38 38 40 44
46 45 47 46 44 44 42 41 38 36 37 30 30 37 37 36 33 32 37 34 27 23 20 22 21 20 23 25 24 21 18 16 17 14 12 13 16 17 18 19 18 17 17 20 21 21 22 28 31 29 27 25 24 24 21 20 19 16 15 15 15 15 16 16 16 17 16 19 25 27 28 30 32 32 30 30 32 32 32 33 32 32 33 35 37 38 41 44
48 47 47 46 44 43 43 43 42 38 37 34 33 34 35 38 36 36 41 35 26 22 21 20 19 19 19 21 23 23 21 19 18 16 13 14 18 22 21 19 20 18 18 21 22 23 25 30 31 27 26 24 24 26 23 20 19 17 15 14 15 15 15 16 16 17 16 19 26 27 27 31 32 32 31 30 32 33 33 34 34 33 33 35 37 38 41 44
52 50 50 48 45 43 43 45 45 40 38 39 36 31 33 40 38 36 39 36 31 28 24 22 22 20 15 15 18 20 22 21 19 17 16 16 20 25 25 21 21 19 20 22 23 26 30 32 30 27 27 26 26 27 24 22 20 17 15 15 15 15 16 17 17 18 16 19 25 26 28 31 32 32 31 31 32 33 34 35 35 34 34 36 37 39 41 44
53 52 53 51 48 46 46 46 45 44 44 42 36 32 36 42 41 40 40 38 34 29 27 27 24 20 15 13 14 16 20 20 19 19 16 18 22 26 26 23 22 21 21 22 23 28 33 32 28 28 27 25 25 27 26 24 22 19 16 15 16 17 16 17 19 19 18 20 24 25 27 30 30 31 31 31 33 34 34 35 35 35 36 37 38 39 41 42
55 54 54 53 51 50 49 47 44 44 42 38 34 33 38 43 44 43 41 37 34 29 27 26 24 21 16 14 15 16 18 18 18 19 17 19 24 26 25 23 23 22 21 22 23 27 30 28 27 27 25 23 23 25 28 26 23 22 19 16 17 17 16 18 20 20 20 22 24 22 26 32 33 33 32 31 33 34 34 35 35 36 38 39 40 40 41 42
56 57 56 55 54 53 51 45 42 42 37 35 36 36 39 44 44 43 41 38 35 31 28 26 24 22 17 16 18 18 20 19 17 18 18 20 24 25 25 24 23 22 22 23 26 29 30 29 27 24 21 22 22 24 26 25 23 23 20 17 18 18 17 20 21 20 21 24 23 18 24 37 39 36 35 33 33 35 35 35 36 38 39 40 41 42 42 43
55 59 60 57 56 57 52 44 42 41 37 37 41 41 42 43 41 41 41 40 36 29 28 27 24 21 19 19 18 19 22 21 18 18 18 21 24 25 25 24 23 23 23 25 30 33 33 31 27 22 20 21 23 23 23 23 22 22 20 18 19 19 18 20 20 19 20 22 23 18 23 38 43 40 39 37 36 37 35 36 38 38 40 41 42 43 43 42
53 60 63 60 60 60 53 49 45 41 38 38 40 42 42 39 40 42 42 41 35 27 26 27 24 22 20 18 17 18 21 21 20 20 19 22 26 26 26 25 23 25 27 28 33 35 34 32 29 25 22 22 23 23 23 22 21 21 20 18 19 19 19 19 19 20 22 22 22 20 22 36 47 45 41 41 40 38 37 38 39 39 40 42 43 44 43 41
56 63 66 64 65 62 57 55 47 38 37 39 39 41 40 39 45 46 43 41 33 25 26 27 24 25 23 19 18 18 21 22 22 22 21 24 27 26 26 26 23 24 26 28 31 32 31 31 30 26 24 22 21 22 22 20 19 19 20 19 19 19 19 20 18 22 26 23 22 23 21 32 50 51 45 46 45 41 40 41 41 41 41 43 45 45 43 42
59 65 68 68 66 61 59 58 47 39 38 39 39 37 38 45 52 50 45 43 36 27 26 26 25 27 26 22 19 19 23 26 23 22 23 25 27 26 26 26 24 24 26 26 27 28 27 27 28 27 25 21 17 18 20 18 17 17 19 19 19 20 22 22 20 23 27 25 23 25 23 30 49 56 52 52 50 45 45 44 43 44 44 45 47 46 44 43
62 66 70 69 64 59 58 54 48 44 39 37 39 38 42 52 56 53 47 43 40 34 28 27 26 28 28 23 21 22 27 30 27 24 26 27 27 27 27 27 25 26 28 27 27 28 26 27 29 29 28 23 18 17 18 17 16 16 17 17 19 21 22 22 23 24 27 25 23 27 27 27 43 59 59 55 55 51 48 47 46 45 46 48 50 48 47 46
66 71 73 70 64 59 58 56 54 48 40 42 45 44 53 61 59 55 47 41 45 40 31 30 29 28 28 24 23 26 30 34 31 27 27 30 30 29 29 29 29 30 32 30 28 28 27 28 31 31 28 25 23 20 18 18 18 16 15 16 19 22 22 23 24 25 27 25 25 30 28 26 42 60 62 58 58 54 50 49 48 47 50 52 52 51 49 48
70 74 73 69 62 56 57 63 65 54 46 54 56 54 65 73 68 58 47 45 53 47 34 32 31 30 29 26 25 29 32 36 35 29 28 29 31 31 30 31 32 34 37 34 31 30 28 28 31 34 34 29 26 24 21 19 19 16 15 16 18 22 24 25 25 26 26 25 28 29 28 38 55 61 61 63 60 54 53 52 50 50 52 54 54 53 52 52
79 79 76 68 61 58 58 68 74 61 56 65 68 68 76 78 68 55 49 54 61 55 41 34 32 33 31 28 29 31 32 35 34 31 29 28 30 31 29 29 30 33 36 34 33 32 30 28 28 33 38 34 27 25 23 22 20 18 17 16 18 22 26 28 28 28 26 25 31 31 33 52 67 63 61 65 61 56 56 55 54 54 55 56 56 55 55 54
87 86 80 68 60 59 60 69 73 62 62 73 78 81 83 75 62 54 53 60 67 62 49 39 36 37 34 29 30 32 34 37 35 33 31 30 32 32 30 29 30 32 34 34 34 32 30 30 27 28 34 33 28 24 22 21 19 18 17 16 19 21 23 26 26 26 27 28 32 35 40 55 66 66 63 62 60 60 59 58 58 57 57 57 56 55 55 54
90 86 78 66 57 60 67 71 66 57 64 80 86 87 82 69 60 59 59 63 70 67 53 43 40 42 41 35 31 31 35 38 38 36 35 33 33 33 30 29 30 32 33 33 34 31 28 27 25 25 29 29 27 24 22 20 20 19 18 19 21 20 21 25 26 27 29 30 37 46 55 61 64 67 66 61 60 61 60 60 58 58 58 57 57 56 55 55
88 85 80 68 57 66 76 72 60 55 66 84 90 87 78 64 58 66 67 65 72 70 55 45 42 44 47 42 37 35 36 38 39 39 39 37 36 35 31 28 29 30 30 32 33 31 27 26 26 28 28 27 27 26 24 21 20 21 20 21 23 22 24 26 29 32 30 31 45 59 68 68 66 68 68 64 62 60 59 60 59 59 61 60 61 60 59 60
86 81 74 65 63 72 74 62 54 57 70 85 89 83 73 58 57 70 73 70 76 71 56 48 45 44 49 47 44 41 40 41 42 42 41 40 39 38 34 32 30 28 28 30 31 30 28 28 28 29 29 30 29 28 26 22 20 21 21 22 23 25 26 25 28 33 30 36 54 64 66 66 66 69 70 68 67 63 61 61 61 63 66 67 67 65 64 63
88 77 64 61 70 74 64 52 49 58 76 87 86 79 68 56 59 73 76 75 79 72 58 53 48 45 48 48 47 45 42 44 45 45 44 43 43 40 35 34 31 29 28 28 30 30 29 32 33 31 31 32 30 29 28 25 21 21 21 22 24 26 26 25 28 29 30 44 60 65 65 64 63 66 69 71 72 70 67 66 65 67 69 71 70 67 65 61
85 78 72 74 77 68 55 49 51 62 78 86 80 73 64 56 62 74 75 75 78 74 63 56 49 46 48 49 48 46 45 44 45 48 47 46 46 42 37 35 31 30 30 30 31 31 32 37 38 35 34 32 31 30 29 26 23 23 24 25 26 28 26 26 27 25 30 46 58 62 66 62 61 67 68 69 71 70 70 70 68 68 70 69 68 66 62 58
80 78 81 84 77 62 51 51 59 69 78 80 74 66 58 55 64 73 74 73 75 74 66 56 49 48 50 50 49 48 46 44 44 48 48 48 49 45 40 36 32 31 32 32 34 35 35 38 42 41 37 35 35 34 33 28 24 24 26 27 28 28 27 27 29 27 31 43 52 58 61 58 60 66 65 63 65 66 69 71 70 69 69 67 66 62 58 56
79 80 84 82 69 55 49 56 69 74 73 72 67 60 55 57 68 77 74 69 70 70 65 56 50 49 51 51 51 51 51 47 46 49 49 49 50 46 40 37 36 34 33 32 35 37 36 38 45 47 42 42 43 41 39 35 31 28 28 29 29 30 29 29 33 35 34 39 45 49 53 58 62 65 63 62 63 66 70 71 71 73 71 67 64 60 57 56
81 84 85 76 61 51 52 61 72 74 69 66 63 59 59 64 75 81 73 64 65 68 65 57 51 49 50 52 52 54 54 51 50 51 47 46 49 47 43 41 40 35 33 34 37 40 42 43 50 54 50 49 50 45 43 42 40 37 37 38 37 35 34 31 35 40 39 41 45 46 52 64 66 63 63 64 66 69 71 71 73 73 70 66 63 60 58 56
85 84 80 69 60 58 60 63 70 72 68 66 62 58 61 72 79 78 70 64 63 66 65 59 55 52 52 53 55 55 53 52 52 49 47 47 48 48 47 45 42 37 36 38 38 41 46 49 56 60 56 53 52 49 47 47 46 46 47 49 46 42 39 36 37 40 42 48 50 46 53 66 67 64 63 64 68 71 70 71 73 72 69 66 63 61 60 60
87 80 74 67 63 66 66 64 67 69 66 66 65 62 68 76 76 72 69 67 65 67 66 62 59 57 56 56 55 52 51 54 54 50 50 50 48 49 50 45 43 43 41 40 38 39 45 51 57 61 61 59 58 56 54 52 53 54 54 55 52 46 42 40 39 38 41 49 48 41 52 67 68 67 66 65 69 72 72 73 73 72 70 68 66 64 62 63
78 72 69 68 69 73 73 68 67 67 69 71 73 73 76 76 74 71 71 70 68 69 68 65 62 61 60 58 55 53 51 51 53 53 53 52 50 50 52 49 49 50 48 44 40 41 49 56 55 54 57 58 57 55 55 56 58 58 57 57 55 51 47 43 41 38 40 48 48 44 57 71 71 71 72 69 69 73 73 74 73 72 71 70 70 69 67 67
69 67 69 74 77 79 77 70 68 70 74 79 83 82 79 77 75 74 73 71 70 71 70 67 65 64 62 60 58 56 54 52 55 57 57 55 52 52 54 55 54 53 49 46 44 45 52 59 58 55 56 57 58 58 58 59 62 62 59 58 58 58 54 47 41 38 41 48 52 53 59 68 73 76 78 76 75 77 77 76 75 74 73 73 74 73 72 71
69 69 72 77 80 80 75 69 71 76 79 83 86 85 82 80 78 76 73 72 73 77 75 69 65 65 63 61 62 61 59 58 60 60 59 57 56 55 54 54 53 51 48 46 48 49 52 59 62 63 65 66 68 69 65 63 64 64 63 61 61 60 57 51 46 45 45 47 53 60 61 65 73 77 79 81 81 81 81 80 80 80 78 78 78 77 76 72
73 73 74 77 79 77 73 70 76 83 85 84 84 85 84 82 80 77 72 71 74 78 77 71 65 63 60 59 62 62 62 64 65 63 60 58 60 59 55 52 51 50 48 48 49 50 53 61 65 65 67 69 68 69 69 68 66 66 66 66 65 64 62 60 58 57 55 52 56 64 67 70 76 78 80 82 82 82 83 83 84 83 81 81 80 78 76 72
75 78 78 78 80 77 74 73 75 82 87 86 84 84 82 79 77 72 68 71 75 74 73 70 64 60 58 58 60 62 64 66 66 65 63 61 62 62 60 56 53 50 49 51 50 49 54 63 65 64 67 70 68 68 70 70 69 70 70 70 69 68 67 66 64 62 61 61 62 66 71 76 79 81 83 85 84 84 84 83 83 82 81 81 80 77 76 74
77 81 82 82 81 77 76 78 79 83 87 87 84 83 79 75 71 65 63 68 73 71 68 65 61 59 60 59 60 63 65 64 62 62 63 62 61 61 60 58 55 52 53 55 52 48 52 62 64 62 67 74 73 71 71 72 72 73 72 70 69 69 69 69 69 67 66 68 68 69 74 78 80 83 86 87 86 85 84 83 82 81 81 82 80 78 75 74
81 82 84 83 81 80 81 84 86 86 86 85 85 81 75 70 65 62 60 60 65 68 67 65 63 64 64 61 61 62 62 63 63 62 63 63 61 61 61 60 58 57 58 59 57 53 52 61 65 61 68 80 79 72 73 73 69 71 75 75 74 74 73 70 69 69 70 73 75 75 76 79 81 84 87 87 87 86 85 85 84 83 84 83 81 79 77 74
83 83 84 82 80 80 85 89 87 84 82 82 83 78 72 67 63 63 61 58 59 62 64 65 66 66 67 67 66 65 64 66 67 65 65 66 65 64 65 65 64 64 65 64 64 61 56 60 63 60 68 83 82 75 76 71 64 70 78 79 78 76 74 72 70 69 69 72 75 75 76 79 82 85 88 88 87 87 87 87 87 86 85 83 81 80 78 76